Weather History for Barking Sands, HI

Change the Weather History Date:

Tuesday, September 10, 2013

  Actual Average Record
Temperature  
Mean Temperature 79 °F -  
Max Temperature 86 °F 89 °F 92 °F (1971)
Min Temperature 72 °F 68 °F 63 °F (1951)
Cooling Degree Days 14    
Growing Degree Days 29 (Base 50)    
Moisture  
Dew Point 65 °F    
Average Humidity 61    
Maximum Humidity 71    
Minimum Humidity 55    
Precipitation  
Precipitation 0.00 in - - ()
Sea Level Pressure  
Sea Level Pressure 30.05 in    
Wind  
Wind Speed 4 mph (West)    
Max Wind Speed 12 mph    
Max Gust Speed -    
Visibility 10 miles    
Events      
Averages and records for this station are not official NWS values.
T = Trace of Precipitation, MM = Missing Value Source: NWS Daily Summary

Daily Weather History Graph

Daily Weather History Graph

Search for Another Location

Airport:

Trip Planner

Search our weather history database for the weather conditions in past years. The results will help you decide how hot, cold, wet, or windy it might be!

Date:

Astronomy

Sep. 10, 2013 Rise Set
Actual Time 6:24 AM HST 6:46 PM HST
Civil Twilight 6:02 AM HST 7:09 PM HST
Nautical Twilight 5:36 AM HST 7:35 PM HST
Astronomical Twilight 5:09 AM HST 8:01 PM HST
Moon 11:19 AM HST (9/10) 10:43 PM HST (9/10)
Length of Visible Light 13h 06m
Length of Day
12h 21m
Waxing Crescent, 30% of the Moon is Illuminated
Sep 10
Waxing Crescent
Sep 12
First Quarter
Sep 19
Full
Sep 26
Last Quarter
Oct 4
New

Hourly Weather History & Observations

Time (HST) Temp. Heat Index Dew Point Humidity Pressure Visibility Wind Dir Wind Speed Gust Speed Precip Events Conditions
12:56 AM 73.9 °F - 60.1 °F 62% 30.07 in 10.0 mi Calm Calm - N/A   Partly Cloudy
1:56 AM 73.9 °F - 62.1 °F 66% 30.06 in 10.0 mi East 4.6 mph - N/A   Clear
2:56 AM 72.0 °F - 62.1 °F 71% 30.05 in 10.0 mi East 3.5 mph - N/A   Clear
3:56 AM 73.0 °F - 62.1 °F 68% 30.04 in 10.0 mi ENE 3.5 mph - N/A   Clear
4:56 AM 75.0 °F - 62.1 °F 64% 30.04 in 10.0 mi ENE 3.5 mph - N/A   Clear
5:56 AM 73.0 °F - 63.0 °F 71% 30.06 in 10.0 mi Calm Calm - N/A   Clear
6:56 AM 73.9 °F - 61.0 °F 64% 30.06 in 10.0 mi East 3.5 mph - N/A   Clear
7:56 AM 80.1 °F 81.7 °F 64.0 °F 58% 30.07 in 10.0 mi Calm Calm - N/A   Clear
8:56 AM 81.0 °F 83.3 °F 66.9 °F 62% 30.07 in 10.0 mi West 5.8 mph - N/A   Clear
9:56 AM 82.0 °F 84.1 °F 66.0 °F 58% 30.07 in 10.0 mi SW 6.9 mph - N/A   Clear
10:56 AM 84.0 °F 86.3 °F 66.0 °F 55% 30.06 in 10.0 mi WSW 8.1 mph - N/A   Clear
11:56 AM 84.0 °F 86.5 °F 66.9 °F 56% 30.04 in 10.0 mi West 9.2 mph - N/A   Clear
12:56 PM 84.9 °F 87.6 °F 66.9 °F 55% 30.03 in 10.0 mi WNW 11.5 mph - N/A   Clear
1:56 PM 86.0 °F 89.4 °F 68.0 °F 55% 30.01 in 10.0 mi WNW 4.6 mph - N/A   Partly Cloudy
2:56 PM 86.0 °F 90.1 °F 69.1 °F 57% 30.00 in 10.0 mi WSW 9.2 mph - N/A   Partly Cloudy
3:56 PM 84.9 °F 87.6 °F 66.9 °F 55% 30.00 in 10.0 mi Calm Calm - N/A   Overcast
4:56 PM 84.9 °F 89.4 °F 70.0 °F 61% 30.01 in 10.0 mi West 10.4 mph - N/A   Clear
5:56 PM 84.9 °F 88.8 °F 69.1 °F 59% 30.02 in 10.0 mi NNW 6.9 mph - N/A   Scattered Clouds
6:56 PM 82.0 °F 84.9 °F 68.0 °F 62% 30.04 in 10.0 mi SSE 3.5 mph - N/A   Clear
7:56 PM 80.1 °F 82.3 °F 66.9 °F 64% 30.06 in 10.0 mi SSE 4.6 mph - N/A   Clear
8:56 PM 81.0 °F 83.3 °F 66.9 °F 62% 30.07 in 10.0 mi NW 3.5 mph - N/A   Clear
9:56 PM 78.1 °F - 64.0 °F 62% 30.08 in 10.0 mi Calm Calm - N/A   Clear
10:56 PM 77.0 °F - 62.1 °F 60% 30.07 in 10.0 mi Calm Calm - N/A   Clear
11:56 PM 75.0 °F - 62.1 °F 64% 30.07 in 10.0 mi East 3.5 mph - N/A   Clear